Temperature
20 21 21 22 21 20 20 19 19 20 20 20 19 19 19 20 20 20 20 20 20 21 21 21 20 20 20 20 20 19 19 19 18 18 17 17 17 17 16 16 16 16 16 16
21 21 21 21 21 21 20 20 20 20 20 19 19 19 19 19 19 19 20 20 20 20 20 20 20 20 20 20 19 19 19 18 18 18 17 17 17 16 16 16 16 16 15 15
19 20 21 21 21 20 20 20 19 20 20 18 18 18 18 19 19 19 20 20 20 20 20 20 20 20 20 19 19 19 19 18 18 17 17 17 16 16 16 16 16 15 15 15
17 20 21 20 20 20 20 19 19 19 18 18 17 18 18 19 19 19 19 19 20 20 20 20 19 19 19 19 19 18 18 18 18 17 17 16 16 16 16 16 15 15 15 15
16 18 19 20 20 19 19 19 18 18 17 17 17 18 17 18 18 18 19 19 19 19 19 19 19 19 19 18 18 18 18 18 17 17 16 16 16 16 15 15 15 15 15 15
15 18 19 19 19 19 19 19 18 17 16 16 17 16 16 18 18 18 18 19 19 19 19 19 18 18 18 18 18 17 17 17 16 16 16 16 16 15 15 15 15 15 14 14
15 17 17 17 17 19 19 18 17 17 16 16 16 16 17 17 17 18 18 18 18 18 18 18 18 18 18 17 17 17 16 16 16 16 16 15 15 15 15 15 15 14 14 14
14 16 17 17 17 17 17 17 17 17 17 17 17 17 17 17 17 17 17 18 18 18 18 17 17 17 17 17 17 16 16 16 15 15 15 15 15 15 15 14 14 14 14 14
14 15 15 16 16 17 17 17 17 17 17 17 16 16 16 17 17 17 17 17 17 17 17 17 17 16 16 16 16 15 15 15 15 15 15 14 14 14 14 14 14 14 13 13
13 14 15 16 16 17 17 17 17 17 17 17 17 16 16 16 16 16 16 16 16 16 16 16 16 16 16 15 15 15 15 15 15 14 14 14 14 14 14 13 13 13 13 13
13 13 15 16 16 16 17 17 17 17 17 17 16 16 16 16 16 16 16 16 16 16 16 16 15 15 15 15 15 15 14 14 14 14 14 13 13 13 13 13 13 13 13 13
13 14 13 15 16 16 16 16 16 16 16 16 16 16 16 16 16 16 16 15 15 15 15 15 15 15 14 14 14 14 14 14 13 13 13 13 13 12 12 12 12 12 12 12
15 15 15 15 15 16 16 16 16 16 16 16 16 16 16 15 15 15 15 15 15 15 15 14 14 14 14 14 14 13 13 13 13 13 12 12 12 12 12 12 12 12 12 12
15 15 14 15 15 15 15 15 15 15 15 15 15 15 15 15 15 15 15 14 14 14 14 14 14 14 13 13 13 13 13 13 12 12 12 12 12 12 12 12 11 12 12 12
15 15 15 14 14 14 14 14 14 14 14 14 14 14 14 14 14 14 14 14 14 14 14 13 13 13 13 13 13 12 12 12 12 12 12 12 11 11 11 11 11 11 11 11
14 14 14 14 14 14 14 13 14 14 14 14 14 14 14 14 14 14 14 13 13 13 13 13 13 13 13 12 12 12 12 12 12 12 12 11 11 11 11 11 11 11 11 11
13 13 13 13 13 13 13 13 13 13 13 13 13 13 13 13 13 13 13 13 13 13 13 13 13 12 12 12 12 12 11 11 11 11 11 11 11 11 11 11 11 11 11 11
14 14 13 13 13 13 13 13 13 13 13 13 13 13 13 13 13 13 13 12 12 12 12 12 12 12 12 12 11 11 11 11 11 11 10 10 10 11 10 10 10 10 10 10
13 13 13 13 13 12 12 12 12 13 13 13 12 12 12 12 12 12 12 12 12 12 12 12 12 12 12 11 11 11 11 11 10 10 10 10 10 10 10 10 10 10 10 10
13 13 12 12 12 12 12 12 12 12 12 12 12 12 12 12 12 12 12 11 11 12 12 11 11 11 11 11 11 11 11 10 10 10 10 10 10 10 10 10 10 10 10 10
13 12 12 12 12 12 12 12 12 12 12 12 12 12 12 12 11 11 11 11 11 11 11 11 11 11 11 11 11 11 10 10 10 10 10 10 10 10 10 10 10 10 10 10
12 12 12 12 11 11 11 11 11 11 11 11 11 11 11 11 11 11 11 11 11 11 11 10 10 10 10 10 10 10 10 10 10 10 10 10 9 9 9 10 10 9 9 9
12 12 12 11 11 11 11 11 11 11 11 11 11 11 11 10 10 10 10 10 10 10 10 10 10 10 10 10 9 9 9 9 9 9 9 9 9 9 9 9 9 9 9 9
11 11 11 11 11 11 11 11 11 10 10 10 10 10 10 10 10 10 10 10 10 10 10 9 9 9 9 9 9 9 9 9 9 9 9 9 9 9 9 9 9 9 9 9
11 11 11 10 10 10 10 10 10 10 10 10 10 10 10 10 10 10 10 9 9 9 9 9 9 9 9 9 9 9 9 9 9 9 9 9 9 9 9 9 9 9 9 8
10 10 10 10 10 10 10 10 10 10 10 10 10 10 9 9 9 9 9 9 9 9 9 9 9 9 9 8 8 8 8 8 8 8 8 8 8 8 8 8 8 8 8 8
10 10 10 10 10 10 9 9 9 9 9 9 9 9 9 9 9 9 9 9 9 9 9 8 8 8 8 8 8 8 8 8 8 8 8 8 8 8 8 8 8 8 8 8
Wind_Speed
4 3 3 4 4 5 6 7 8 8 7 8 6 5 5 4 4 3 3 3 3 2 1 1 1 1 2 2 2 4 5 5 5 4 4 4 4 4 3 3 4 3 3 2
1 2 2 2 3 4 5 5 5 4 6 5 2 2 3 4 5 4 3 3 3 2 2 1 1 2 2 2 3 4 5 5 4 4 3 3 3 3 3 3 2 2 3 3
2 3 2 2 4 4 3 3 6 6 6 2 2 3 4 4 4 4 4 3 2 2 2 2 1 2 3 2 3 4 4 4 3 3 3 3 3 3 4 3 3 2 2 3
2 2 4 6 1 3 3 1 1 2 2 2 3 2 2 2 3 2 1 2 2 2 1 1 2 2 2 3 3 3 3 3 3 3 3 2 2 3 3 3 3 3 3 3
4 3 4 4 1 1 2 1 1 1 2 3 4 5 5 3 2 2 2 1 1 1 1 2 2 3 4 3 3 3 2 2 2 3 3 3 3 4 3 3 2 2 2 3
4 4 6 5 4 3 3 2 1 2 3 3 4 3 2 2 3 3 3 2 2 2 3 3 2 3 4 3 2 1 2 2 2 3 4 4 4 3 2 2 2 2 2 2
3 4 5 4 5 1 4 5 2 2 3 4 3 3 2 0 2 3 2 3 3 4 3 1 1 3 3 2 1 2 1 1 1 2 4 4 3 2 2 2 2 2 2 2
3 2 5 4 2 2 4 2 1 2 2 3 3 2 2 2 2 3 3 3 3 3 2 2 3 3 2 1 2 1 0 0 0 1 2 2 2 2 2 2 2 2 1 2
5 5 4 3 1 2 1 1 1 2 2 4 3 2 2 2 1 2 2 2 2 3 2 3 2 2 1 2 1 1 1 0 0 0 1 1 3 3 2 2 2 2 2 3
1 3 3 4 3 2 1 0 0 2 3 4 3 2 1 1 1 2 1 1 1 2 2 1 1 0 1 1 0 1 0 1 1 1 1 1 2 3 3 3 3 3 3 4
2 4 4 4 4 3 2 2 3 3 3 4 4 2 1 1 0 0 0 0 1 2 1 1 1 1 1 1 1 1 1 1 1 1 2 2 2 3 4 4 5 5 5 5
4 4 3 5 5 3 1 1 0 1 1 1 3 3 2 1 2 1 1 0 0 0 1 1 1 2 2 1 1 1 1 2 1 2 2 2 2 2 2 3 4 5 6 5
4 3 3 4 4 2 1 1 1 1 2 1 1 2 2 2 2 1 1 1 2 2 2 2 2 2 3 2 2 2 3 3 2 2 2 2 2 2 2 3 2 3 5 6
3 1 2 3 3 3 1 1 1 1 1 0 1 1 1 1 1 2 2 3 2 2 2 2 2 3 4 3 2 2 2 3 3 3 3 3 4 4 3 3 3 3 4 5
3 2 3 3 2 2 1 2 2 2 2 2 1 1 1 2 2 3 3 2 2 2 3 2 3 5 4 2 2 3 3 3 3 3 3 3 3 3 3 3 4 3 3 3
2 1 0 0 1 1 2 1 0 1 1 1 2 2 3 3 3 3 3 2 2 3 4 3 4 5 4 2 3 2 3 4 3 2 2 2 2 3 3 3 4 4 4 4
1 1 1 1 1 1 2 2 3 3 2 2 3 3 2 2 3 3 3 2 2 4 4 4 5 5 3 3 3 3 3 3 3 2 2 2 3 4 4 4 4 4 4 4
5 5 5 4 4 3 4 3 3 3 3 4 3 2 3 3 4 5 5 3 2 3 4 5 5 4 3 3 3 3 3 3 3 3 3 3 3 3 4 4 5 5 4 4
2 2 2 2 2 2 3 3 4 4 4 3 3 4 5 5 5 5 3 2 3 5 6 5 5 4 4 4 4 3 3 4 4 3 3 4 4 4 4 4 5 5 4 4
1 1 1 2 1 1 2 3 3 3 4 3 3 4 4 5 4 3 2 3 5 5 5 5 4 4 4 4 4 4 4 5 5 4 4 4 4 4 4 5 5 5 5 4
2 2 2 2 2 2 2 2 2 3 4 2 3 4 5 4 3 3 2 4 6 5 4 4 3 3 4 3 4 3 4 4 4 4 4 4 4 4 4 5 5 5 4 4
2 2 2 2 2 3 3 2 2 2 2 3 3 3 3 3 3 3 4 4 5 5 3 3 3 4 4 4 3 3 4 4 4 3 4 4 4 4 4 4 4 4 4 4
2 2 2 2 2 2 3 2 2 2 2 3 3 3 4 4 3 3 4 4 3 4 3 3 4 4 4 3 2 3 3 4 4 4 4 4 4 5 5 5 5 5 4 5
2 2 2 2 0 1 2 4 3 3 3 3 4 4 3 3 4 4 4 4 4 4 3 4 5 4 3 2 2 2 2 3 3 3 3 3 3 3 4 4 4 5 5 5
2 2 2 1 1 2 3 3 3 3 3 3 3 3 3 3 4 4 4 4 4 4 3 4 4 4 2 1 2 2 2 3 3 3 3 3 3 3 3 4 4 4 3 3
2 2 2 3 2 2 2 2 2 2 2 3 3 3 3 3 3 3 3 3 4 4 3 3 3 3 2 2 2 2 2 3 3 3 3 3 4 4 4 4 4 3 3 3
2 2 1 2 2 2 1 2 2 2 3 3 3 3 3 3 3 3 3 3 3 2 2 2 2 2 2 2 2 2 2 3 3 3 3 3 3 3 4 4 3 3 3 3
Wind_Direction
225 233 204 208 214 188 188 191 190 223 226 247 231 207 194 176 157 142 141 143 147 158 164 149 153 168 158 164 161 158 158 167 181 182 181 177 186 192 190 192 197 192 183 186
314 301 220 224 229 195 195 194 199 210 247 250 216 164 161 172 167 169 180 177 170 168 165 170 179 179 161 160 156 152 160 172 176 169 175 187 193 194 190 197 198 186 191 196
234 295 38 257 230 192 182 197 182 207 231 195 157 179 179 178 181 191 193 185 180 178 178 187 193 166 158 179 164 154 161 167 166 168 179 198 200 195 202 201 197 207 210 203
146 95 213 241 255 157 149 158 183 219 232 183 175 136 99 142 167 171 172 166 176 165 150 127 114 109 121 124 126 143 157 169 166 162 185 201 201 212 213 204 205 212 213 212
133 172 262 292 325 118 162 260 9 161 109 88 107 68 26 26 81 124 137 145 148 144 127 84 95 111 102 95 105 122 154 181 183 180 184 197 212 223 219 205 212 214 212 203
134 165 219 248 297 299 128 265 308 145 147 138 103 98 275 340 54 72 79 91 89 85 84 73 56 103 113 119 123 159 207 216 208 197 196 208 220 217 212 200 209 200 215 218
157 205 253 291 303 59 137 247 272 178 165 151 155 192 204 112 64 83 90 91 88 84 84 85 95 108 113 119 205 239 241 209 206 215 213 211 207 197 189 192 188 196 218 242
144 183 258 326 51 142 219 265 173 153 135 134 127 113 115 103 75 72 73 72 85 87 63 48 84 104 104 240 269 310 73 109 222 238 229 204 183 191 187 183 194 217 233 266
190 210 256 308 255 282 204 168 180 155 127 128 117 106 98 99 81 68 75 74 88 101 69 31 54 124 170 290 346 55 79 81 244 267 238 202 193 196 194 193 205 225 231 245
270 281 301 317 332 352 10 298 172 136 132 128 130 129 97 74 44 42 55 112 118 114 101 18 340 318 246 276 106 121 225 287 282 243 254 234 216 206 203 207 211 217 225 237
279 291 321 333 336 330 11 45 75 87 113 138 134 133 135 117 323 172 141 140 137 139 143 248 289 292 292 286 128 153 239 267 283 270 247 246 241 229 224 225 216 212 222 217
231 234 225 275 300 318 9 355 116 99 56 90 143 167 178 210 227 211 190 151 121 189 239 270 276 282 287 282 172 182 263 282 279 273 269 262 260 291 291 248 240 226 221 217
227 238 234 270 300 308 276 279 294 136 150 180 236 183 186 220 242 224 226 234 227 234 244 257 259 275 277 264 228 212 231 242 246 243 241 249 249 240 270 318 303 251 240 234
239 221 276 276 286 302 316 331 10 30 24 203 260 250 200 226 248 247 249 249 248 249 249 249 257 269 266 253 233 242 244 239 234 245 245 241 239 234 225 233 265 284 274 250
269 226 233 272 315 340 1 49 46 14 6 353 327 291 254 242 252 257 257 253 253 267 266 257 259 268 265 237 230 244 252 248 238 240 242 238 239 235 229 230 241 258 283 280
303 359 91 56 324 349 13 18 2 272 294 310 314 297 280 264 263 266 266 239 226 254 259 259 263 267 264 241 238 248 254 251 232 228 237 241 239 236 236 237 242 249 255 260
154 261 249 255 256 269 268 256 244 248 254 259 266 275 289 298 298 292 288 277 247 256 267 263 265 270 262 236 226 235 242 247 235 225 240 248 246 241 238 236 242 250 258 256
217 223 220 219 228 240 254 259 258 253 246 252 265 280 275 265 263 268 275 289 298 296 285 270 265 264 258 241 230 229 228 232 231 234 245 252 254 247 240 240 243 251 264 264
214 213 229 245 249 240 249 257 262 262 263 259 250 253 255 255 252 256 266 275 278 282 284 282 274 268 263 249 236 227 229 236 239 242 245 253 256 253 247 248 250 251 252 254
294 260 252 270 278 269 267 271 278 280 276 259 253 262 266 268 266 263 260 265 264 265 275 281 275 270 265 256 242 235 235 239 244 250 250 251 255 257 253 250 252 255 255 250
273 274 271 271 280 279 271 274 275 282 291 281 249 247 254 263 264 254 249 276 283 282 287 277 271 271 267 259 244 239 240 243 246 249 252 255 260 264 261 254 252 255 257 257
269 271 269 272 276 289 290 285 272 280 298 301 294 284 280 284 279 268 257 257 275 285 285 281 278 271 268 265 249 240 240 242 247 250 251 253 258 267 272 268 261 258 256 258
271 271 272 267 266 284 311 305 279 265 269 269 272 273 267 265 261 260 278 279 282 284 282 278 280 282 277 262 251 246 250 253 255 256 256 257 257 258 263 267 265 262 259 259
258 270 275 278 310 330 303 290 286 280 274 275 273 266 260 269 279 270 268 277 276 275 277 276 272 276 272 252 246 251 256 258 261 261 259 256 257 260 263 266 269 270 263 259
270 276 282 268 263 272 273 286 303 302 300 303 301 292 268 245 254 273 277 278 277 269 278 277 268 268 266 259 245 245 253 257 258 254 253 256 261 264 266 266 265 269 266 260
270 260 253 244 243 260 267 271 280 292 292 298 304 301 296 290 279 281 282 282 286 275 273 278 274 266 265 261 256 254 260 268 268 264 263 263 264 263 263 264 265 261 259 259
284 280 285 306 301 283 269 261 264 280 282 277 285 292 294 296 298 299 297 296 294 291 285 281 274 265 265 272 275 271 269 270 268 265 267 270 269 266 265 263 262 263 267 265
Height
1484 1481 1481 1483 1484 1486 1491 1494 1500 1495 1492 1483 1479 1479 1479 1480 1481 1482 1484 1485 1487 1488 1489 1490 1491 1492 1494 1495 1497 1498 1499 1500 1502 1504 1505 1506 1507 1508 1508 1509 1509 1510 1510 1511
1485 1481 1481 1482 1481 1482 1484 1486 1488 1487 1486 1477 1477 1477 1478 1479 1480 1481 1482 1484 1485 1487 1488 1489 1490 1491 1492 1493 1494 1495 1496 1497 1499 1501 1502 1503 1504 1505 1506 1506 1507 1507 1507 1508
1493 1485 1482 1490 1481 1480 1481 1480 1482 1485 1480 1476 1477 1477 1477 1478 1480 1480 1482 1483 1485 1486 1487 1488 1490 1490 1491 1492 1493 1493 1494 1496 1497 1498 1499 1500 1501 1502 1503 1503 1504 1504 1505 1505
1496 1491 1500 1487 1474 1474 1477 1478 1478 1477 1476 1475 1476 1476 1477 1478 1479 1480 1481 1483 1484 1485 1486 1487 1489 1490 1491 1491 1491 1491 1492 1493 1494 1495 1496 1497 1498 1499 1500 1500 1500 1501 1502 1502
1501 1500 1494 1482 1475 1476 1478 1480 1477 1476 1476 1476 1476 1476 1478 1479 1479 1480 1481 1482 1483 1485 1486 1486 1488 1489 1490 1490 1490 1490 1491 1491 1492 1493 1494 1495 1496 1497 1497 1497 1498 1498 1498 1499
1500 1498 1499 1485 1475 1473 1476 1483 1476 1476 1476 1476 1476 1482 1482 1479 1479 1480 1481 1482 1483 1484 1485 1486 1488 1488 1488 1489 1489 1489 1489 1490 1491 1492 1492 1493 1493 1494 1494 1494 1495 1495 1495 1496
1497 1496 1489 1479 1474 1473 1487 1485 1476 1475 1475 1476 1478 1480 1481 1480 1479 1480 1481 1481 1482 1484 1485 1486 1487 1487 1487 1487 1487 1487 1488 1488 1489 1490 1490 1490 1491 1491 1492 1492 1492 1493 1492 1493
1497 1497 1493 1478 1475 1480 1480 1475 1474 1474 1475 1477 1478 1479 1479 1480 1480 1480 1480 1481 1482 1483 1484 1484 1485 1486 1486 1486 1486 1486 1486 1486 1487 1488 1488 1488 1489 1489 1489 1490 1490 1490 1489 1489
1490 1490 1482 1478 1477 1477 1476 1475 1474 1474 1475 1477 1477 1478 1479 1479 1480 1480 1481 1481 1482 1482 1482 1483 1484 1484 1484 1484 1484 1484 1484 1484 1484 1485 1485 1486 1486 1486 1486 1486 1486 1486 1486 1486
1485 1481 1479 1477 1476 1475 1475 1474 1474 1474 1475 1476 1477 1478 1479 1479 1480 1480 1481 1481 1481 1481 1481 1482 1482 1482 1482 1482 1483 1483 1482 1482 1481 1481 1481 1482 1482 1483 1482 1482 1482 1482 1482 1482
1484 1480 1478 1476 1476 1475 1474 1474 1474 1474 1475 1476 1476 1477 1478 1478 1479 1480 1480 1480 1480 1479 1479 1480 1480 1480 1480 1480 1480 1480 1480 1479 1479 1478 1478 1478 1479 1479 1479 1479 1480 1480 1479 1479
1483 1479 1479 1477 1476 1475 1474 1473 1473 1473 1474 1475 1476 1476 1477 1478 1479 1478 1478 1478 1478 1478 1478 1478 1478 1478 1478 1478 1478 1477 1477 1476 1475 1475 1475 1475 1475 1476 1476 1477 1477 1476 1476 1476
1478 1477 1476 1475 1475 1475 1474 1473 1473 1473 1473 1474 1475 1475 1476 1476 1477 1477 1477 1477 1477 1477 1476 1476 1476 1476 1476 1476 1475 1475 1474 1473 1472 1472 1471 1472 1472 1472 1472 1472 1473 1472 1472 1472
1475 1475 1474 1474 1474 1474 1473 1473 1473 1473 1473 1473 1473 1473 1474 1474 1474 1474 1474 1474 1474 1474 1474 1474 1473 1473 1473 1473 1472 1471 1471 1470 1469 1468 1467 1468 1468 1468 1468 1467 1467 1467 1468 1468
1473 1473 1473 1473 1472 1472 1472 1472 1471 1471 1471 1472 1472 1472 1472 1472 1471 1471 1471 1472 1472 1471 1471 1470 1470 1470 1470 1470 1469 1468 1467 1466 1465 1465 1465 1464 1464 1464 1464 1464 1464 1463 1463 1463
1471 1471 1472 1472 1471 1471 1471 1471 1470 1469 1470 1469 1469 1469 1469 1469 1469 1469 1469 1469 1469 1468 1468 1467 1467 1467 1467 1466 1465 1464 1463 1463 1462 1461 1461 1460 1460 1460 1460 1460 1460 1460 1459 1459
1470 1469 1469 1469 1469 1469 1469 1469 1469 1468 1467 1467 1467 1467 1467 1467 1466 1466 1466 1466 1465 1465 1465 1464 1464 1463 1462 1462 1461 1460 1459 1459 1458 1458 1457 1457 1456 1456 1456 1456 1456 1455 1455 1455
1468 1468 1468 1468 1467 1467 1466 1467 1467 1466 1465 1465 1465 1465 1464 1464 1463 1463 1463 1462 1462 1461 1461 1460 1460 1459 1458 1458 1457 1456 1456 1455 1454 1454 1453 1453 1453 1452 1452 1452 1452 1451 1451 1451
1465 1465 1465 1465 1465 1465 1464 1464 1464 1463 1463 1462 1462 1462 1461 1461 1461 1460 1460 1459 1458 1457 1456 1456 1455 1454 1453 1453 1453 1452 1452 1451 1450 1450 1450 1449 1449 1448 1448 1448 1447 1447 1447 1446
1463 1463 1463 1462 1463 1462 1462 1461 1461 1461 1460 1460 1459 1458 1458 1458 1458 1457 1456 1455 1455 1454 1453 1452 1451 1450 1449 1448 1448 1448 1448 1447 1446 1446 1446 1446 1445 1445 1444 1443 1443 1443 1442 1442
1461 1460 1460 1460 1460 1460 1459 1459 1458 1458 1458 1457 1456 1455 1455 1454 1454 1453 1452 1451 1451 1451 1449 1448 1447 1445 1445 1444 1443 1443 1443 1443 1442 1442 1441 1441 1441 1440 1440 1439 1439 1438 1437 1437
1459 1458 1457 1457 1457 1457 1456 1456 1456 1455 1455 1454 1454 1453 1452 1451 1451 1450 1449 1448 1447 1447 1445 1444 1443 1441 1440 1439 1439 1438 1438 1438 1438 1437 1437 1437 1436 1435 1435 1435 1434 1433 1433 1432
1457 1456 1455 1455 1454 1454 1453 1453 1453 1452 1452 1451 1450 1450 1449 1449 1448 1447 1445 1445 1444 1443 1441 1440 1439 1438 1437 1435 1435 1434 1434 1434 1434 1434 1433 1432 1431 1430 1430 1430 1429 1429 1428 1428
1454 1454 1453 1453 1452 1451 1450 1450 1450 1449 1449 1448 1447 1446 1446 1445 1444 1444 1442 1441 1440 1439 1438 1436 1435 1434 1433 1432 1432 1431 1431 1430 1430 1430 1429 1428 1427 1427 1426 1426 1425 1424 1423 1423
1452 1451 1451 1450 1449 1449 1448 1447 1447 1446 1445 1444 1444 1443 1442 1441 1440 1439 1438 1437 1436 1435 1434 1433 1432 1431 1430 1429 1428 1428 1427 1427 1427 1426 1425 1425 1424 1423 1422 1422 1421 1420 1419 1418
1449 1449 1448 1448 1447 1446 1446 1445 1444 1443 1442 1441 1440 1440 1439 1438 1437 1436 1435 1434 1433 1432 1430 1429 1429 1428 1427 1426 1425 1425 1424 1424 1423 1423 1422 1421 1420 1419 1419 1418 1417 1416 1415 1415
1447 1446 1445 1445 1444 1444 1443 1442 1441 1440 1439 1438 1437 1437 1436 1435 1434 1433 1432 1431 1430 1429 1428 1426 1426 1425 1424 1423 1422 1421 1421 1420 1420 1419 1418 1418 1417 1416 1416 1415 1414 1413 1412 1411